Reflectivity
-7 25 14 -9 -20 -20 -20 -20 -20 -20 -20 -20 -20 -20 -20 -20 -20 -20 -20 -20 -20 -20 -20 -20 -20 -20 -20 -20 -20 -20 -20 -20 -20 -20 -20 -20 -20 -20 -20 -20 -20 -20 -20 -20
21 -9 -18 -20 -20 -19 -20 -20 -20 -20 -20 -20 -20 -20 -20 -20 -20 -20 -20 -20 -20 -20 -20 -20 -20 -20 -20 -20 -20 -20 -20 -20 -20 -20 -20 -20 -20 -20 -20 -20 -20 -20 -20 -20
14 8 -20 -20 -20 -20 -12 -20 -20 -20 -20 -20 -20 -20 -20 -20 -20 -20 -20 -20 -20 -20 -20 -20 -20 -20 -20 -20 -20 -20 -20 -20 -20 -20 -20 -20 -20 -20 -20 -20 -20 -20 -20 -20
19 -1 18 -20 -20 -20 3 -20 -20 -20 -20 -20 -20 -20 -20 -20 -20 -20 -20 -20 -20 -20 -20 -20 -20 -20 -20 -20 -20 -20 -20 -20 -20 -20 -20 -20 -20 -20 -20 -20 -20 -20 -20 -20
9 -4 31 13 -20 -20 -20 -20 -20 -19 -20 -20 -20 -20 -20 -20 -20 -20 -20 -20 -20 -20 -20 -20 -20 -20 -20 -20 -20 -20 -20 -20 -20 -20 -20 -20 -20 -20 -20 -20 -20 -20 -20 -20
24 6 27 -20 -13 -20 -20 -13 27 -11 -20 -20 -20 -20 -20 -20 -20 -20 -20 -20 -20 -20 -20 -20 -20 -20 -20 -20 -20 -20 -20 -20 -20 -20 -20 -20 -20 -20 -20 -20 -20 -20 -20 -20
-20 -4 -20 -20 15 -6 29 9 24 -20 -20 -20 -20 -20 -20 -20 -20 -20 -20 -20 -20 -20 -20 -20 -20 -20 -20 -20 -20 -20 -20 -20 -20 -20 -20 -20 -20 -20 -20 -20 -20 -20 -20 -20
4 14 21 24 -20 -20 14 -6 -20 -20 -20 -20 -20 -20 -20 -20 -20 -20 -20 -20 -20 -20 -20 -20 -20 -20 -20 -20 -20 -20 -20 -20 -20 -20 -20 -20 -20 -20 -20 -20 -20 -20 -20 -20
2 14 -20 -20 -20 4 28 -6 -20 -20 -20 -20 -20 -20 -20 -20 -20 -20 -20 -20 -20 -20 -20 -20 -20 -20 -20 -20 -20 -20 -20 -20 -20 -20 -20 -20 -20 -20 -20 -20 -20 -20 -20 -20
-20 -20 -20 -20 -18 -1 -13 -11 -20 -20 -20 -20 -20 -20 -20 -20 -20 -20 -20 -20 -20 -20 -20 -20 -20 -20 -20 -20 -20 -20 -20 -20 -20 -20 -20 -20 -20 -20 -20 -20 -20 -20 -20 -20
-20 -20 -19 -19 -16 -1 -13 -19 -20 -20 -20 -20 -20 -20 -20 -20 -20 -20 -20 -20 -20 -20 -20 -20 -20 -20 -20 -20 -20 -20 -20 -20 -20 -20 -20 -20 -20 -20 -20 -20 -20 -20 -20 -20
-20 -20 -20 -20 -20 -18 -20 -20 -20 -20 -20 -20 -20 -20 -20 -20 -20 -20 -20 -20 -20 -20 -20 -20 -20 -20 -20 -20 -20 -20 -20 -20 -20 -20 -20 -20 -20 -20 -20 -20 -20 -20 -20 -20
-20 -20 -20 -6 -16 -20 -20 -20 -20 -20 -20 -20 -20 -20 -20 -20 -20 -20 -20 -20 -20 -20 -20 -20 -20 -20 -20 -20 -20 -20 -20 -20 -20 -20 -20 -20 -20 -20 -20 -20 -20 -20 -20 -20
-8 -20 -20 -14 -20 -20 -20 -20 -20 -20 -20 -20 -20 -20 -20 -20 -20 -20 -20 -20 -20 -20 -20 -20 -20 -20 -20 -20 -20 -20 -20 -20 -20 -20 -20 -20 -20 -20 -20 -20 -20 -20 -20 -20
14 -20 -20 -20 -20 -20 -20 -20 -20 -20 -20 -20 -20 -20 -20 -20 -20 -20 -20 -20 -20 -20 -20 -20 -20 -20 -20 -20 -20 -20 -20 -20 -20 -20 -20 -20 -20 -20 -20 -20 -20 -20 -20 -20
11 -20 -20 -20 -20 -20 -20 -20 -20 -20 -20 -20 -20 -20 -20 -20 -20 -20 -20 -20 -20 -20 -20 -20 -20 -20 -20 -20 -20 -20 -20 -20 -20 -20 -20 -20 -20 -20 -20 -20 -20 -20 -20 -20
5 -12 -20 -20 -20 -20 -20 -20 -20 -20 -20 -20 -20 -20 -20 -20 -20 -20 -20 -20 -20 -20 -20 -20 -20 -20 -20 -20 -20 -20 -20 -20 -20 -20 -20 -20 -20 -20 -20 -20 -20 -20 -20 -20
-20 -20 -20 -20 -20 -20 -20 -20 -20 -20 -20 -20 -20 -20 -20 -20 -20 -20 -20 -20 -20 -20 -20 -20 -20 -20 -20 -20 -20 -20 -20 -20 -20 -20 -20 -20 -20 -20 -20 -20 -20 -20 -20 -20
-20 -17 -20 -20 -20 -20 -20 -20 -20 -20 -20 -20 -20 -20 -20 -20 -20 -20 -20 -20 -20 -20 -20 -20 -20 -20 -20 -20 -20 -20 -20 -20 -20 -20 -20 -20 -20 -20 -20 -20 -20 -20 -20 -20
-12 -20 -20 -20 -20 -20 -20 -20 -20 -20 -20 2 -6 -20 -20 -20 -20 -20 -20 -20 -20 -20 -20 -20 -20 -20 -20 -20 -20 -20 -20 -20 -20 -20 -20 -20 -20 -20 -20 -20 -20 -20 -20 -20
-20 -20 -20 -20 -20 -20 -20 -20 -20 -20 -18 -1 -15 -20 -20 -20 -20 -20 -20 -20 -20 -20 -20 -20 -20 -20 -20 -20 -20 -20 -20 -20 -20 -20 -20 -20 -20 -20 -20 -20 -20 -20 -20 -20
-20 -20 -20 -20 -20 -20 -20 -20 -20 -20 -20 -20 -20 -20 -20 -20 -20 -20 -20 -20 -20 -20 -20 -20 -20 -20 -20 -20 -20 -20 -20 -20 -20 -20 -20 -20 -20 -20 -20 -20 -20 -20 -20 -20
-20 -20 -20 -20 -20 -20 -20 -20 -20 -20 -20 -20 -20 -20 -20 -20 -20 -20 -20 -20 -20 -20 -20 -20 -20 -20 -20 -20 -20 -20 -20 -20 -20 -20 -20 -20 -20 -20 -20 -20 -20 -20 -20 -20
-20 -20 -20 -20 -20 -20 -20 -20 -20 -20 -20 -20 -20 -20 -20 -20 -20 -20 -20 -20 -20 -20 -20 -20 -20 -20 -20 -20 -20 -20 -20 -20 -20 -20 -20 -20 -20 -20 -20 -20 -20 -20 -20 -20
-20 -20 -20 -20 -20 -20 -20 -20 -20 -20 -20 -20 -20 -20 -20 -20 -20 -20 -20 -20 -20 -20 -20 -20 -20 -20 -20 -20 -20 -20 -20 -20 -20 -20 -20 -20 -20 -20 -20 -20 -20 -20 -20 -20
-20 -20 -20 -20 -20 -20 -20 -20 -20 -20 -20 -20 -20 -20 -20 -20 -20 -20 -20 -20 -20 -20 -20 -20 -20 -20 -20 -20 -20 -20 -20 -20 -20 -20 -20 -20 -20 -20 -20 -20 -20 -20 -20 -20
Wind_Speed
9 10 12 13 13 4 6 4 6 5 4 2 7 8 15 8 5 4 5 4 4 7 3 6 8 8 9 8 8 9 11 9 5 4 3 2 1 2 2 2 4 4 4 5
9 16 14 7 7 4 3 3 5 7 1 3 7 10 12 7 6 4 8 5 4 5 6 7 8 9 8 7 10 12 12 11 7 3 2 2 3 3 3 4 7 8 8 8
11 4 15 13 6 9 3 5 4 6 7 4 6 8 6 2 2 6 6 4 3 6 6 5 7 7 7 10 10 11 10 11 11 8 4 4 4 4 5 6 5 7 7 9
6 5 13 16 11 6 9 6 3 3 4 4 5 8 7 5 4 6 7 6 6 6 2 5 6 7 7 7 7 8 10 10 10 9 10 10 5 5 3 2 3 5 8 9
7 14 11 15 17 10 4 6 6 2 3 3 1 3 9 2 5 6 7 6 5 6 6 6 7 7 5 6 7 7 9 11 9 11 9 7 7 3 2 4 7 7 7 8
3 5 10 8 4 11 7 6 2 3 2 3 7 8 7 4 7 4 4 6 7 6 6 5 6 6 7 6 7 7 10 10 9 10 10 10 9 7 8 9 8 7 5 5
1 4 3 6 7 4 5 7 2 1 1 7 1 2 10 4 5 9 13 10 8 6 6 6 7 7 7 7 6 6 9 9 7 10 11 10 8 8 8 7 7 9 8 7
8 6 8 6 7 7 7 8 6 6 5 4 2 7 7 3 6 7 9 10 8 7 6 7 7 6 7 7 7 7 8 9 8 9 9 7 8 5 5 6 5 5 5 5
8 5 2 5 5 13 7 9 4 5 2 1 4 8 9 4 6 3 10 11 9 8 7 7 6 6 7 7 7 7 7 7 8 7 6 7 6 7 6 6 4 4 5 7
7 6 0 2 6 3 8 9 3 3 3 4 5 5 6 6 2 3 8 10 8 6 7 7 6 6 6 6 6 7 7 8 6 6 6 6 6 6 6 6 7 6 6 7
6 5 2 6 6 8 3 4 4 5 4 4 2 7 5 5 4 8 7 6 8 8 8 7 6 6 6 6 6 6 7 7 7 6 5 7 8 7 6 5 5 6 6 7
4 7 7 3 1 5 4 8 6 6 4 1 3 8 2 5 4 7 6 6 7 7 7 7 7 7 6 6 6 6 6 6 5 5 7 6 5 5 6 6 6 6 6 7
8 2 6 2 1 3 4 4 5 5 4 7 7 7 3 6 6 6 8 8 7 6 7 7 6 6 6 5 5 5 6 6 5 5 5 5 5 6 6 6 7 7 8 9
7 4 7 10 4 7 5 5 5 7 4 5 7 5 3 3 5 4 4 3 6 7 8 7 6 6 5 5 5 5 5 5 5 5 6 5 6 6 6 6 7 7 7 7
4 5 4 3 4 4 7 9 11 10 9 8 6 9 3 2 4 4 3 2 5 6 7 8 7 6 5 6 5 4 5 5 4 5 5 5 5 5 6 6 6 6 6 8
3 3 4 2 3 3 2 4 8 4 4 2 5 4 2 2 3 3 2 2 4 6 7 7 7 7 6 5 4 4 3 3 4 4 4 4 5 6 6 6 8 8 8 9
5 6 4 3 2 2 4 9 8 5 4 8 8 6 4 3 5 2 3 2 4 5 7 8 7 6 6 5 5 4 2 2 1 2 4 5 5 6 7 7 7 9 9 9
6 5 3 4 2 1 3 1 6 7 2 5 7 6 5 5 3 2 3 3 6 2 7 8 7 6 6 4 3 3 2 1 4 5 6 5 5 6 7 7 7 8 7 9
3 5 4 5 5 4 0 5 7 7 3 1 7 5 3 3 3 3 3 3 4 6 7 7 6 5 5 5 3 3 2 5 5 5 5 5 5 6 6 8 8 8 8 9
5 6 5 3 5 8 1 2 5 4 2 7 6 6 5 4 2 4 4 3 3 5 6 7 6 6 6 4 4 3 4 3 4 5 6 5 5 6 7 8 9 6 7 10
3 4 4 2 2 6 4 3 2 5 4 5 6 6 6 4 4 2 3 2 4 4 7 6 6 6 5 4 3 4 3 4 5 5 5 6 6 6 7 6 5 8 10 9
7 7 4 3 2 7 2 4 6 4 3 6 5 4 4 4 2 4 6 6 6 7 6 5 6 5 3 4 3 2 3 4 4 5 6 6 7 7 7 7 8 8 8 10
1 5 5 7 4 1 1 2 4 4 6 5 4 5 4 3 1 2 2 6 6 6 5 4 5 5 3 3 3 2 4 4 5 5 7 7 8 7 7 7 9 8 8 8
1 2 3 3 2 3 4 4 4 4 5 4 2 3 3 2 2 1 3 4 5 5 5 4 5 4 3 2 1 3 4 5 5 6 7 7 7 9 6 5 6 7 7 8
3 4 4 1 2 3 1 2 6 5 5 5 4 3 2 1 1 1 3 5 6 5 5 5 4 3 1 2 3 4 5 4 5 6 7 7 6 7 8 7 6 7 7 9
4 6 5 6 7 5 5 5 4 6 5 5 3 2 2 0 2 3 3 4 5 6 5 4 3 2 2 3 5 6 5 5 5 7 6 6 7 6 7 8 9 12 17 21
Wind_Direction
191 191 190 185 192 165 152 183 215 255 257 268 278 275 278 278 256 214 175 119 76 70 18 25 24 21 19 21 23 23 32 14 52 64 71 60 331 0 13 346 322 318 312 299
188 207 196 142 155 172 143 186 252 282 213 188 306 284 273 267 266 177 161 155 139 89 51 31 26 28 23 28 32 35 32 30 34 59 64 94 87 61 57 29 35 29 35 29
197 165 184 165 157 171 192 190 250 237 334 317 328 291 312 336 104 107 122 140 122 116 112 80 53 39 29 34 28 38 30 36 35 31 45 45 43 34 25 20 25 18 30 33
227 153 184 172 178 156 222 197 208 284 24 258 39 285 296 266 186 145 141 145 154 135 131 99 84 58 46 33 37 44 44 42 38 30 58 63 59 62 10 1 356 15 20 22
177 173 182 174 196 166 216 148 191 220 208 356 292 300 270 153 206 196 183 171 194 160 140 117 97 88 67 55 53 49 58 50 41 50 52 64 62 47 10 11 22 17 12 14
202 144 161 161 167 176 153 81 57 54 82 294 227 183 277 206 210 158 168 178 189 160 150 117 100 96 78 61 55 53 66 50 43 52 47 55 53 38 35 20 19 6 5 1
192 158 159 140 131 68 106 118 286 288 294 228 78 166 252 227 230 183 179 186 186 173 161 138 115 98 89 79 66 69 68 58 48 57 51 43 44 41 38 20 12 7 2 2
157 170 179 172 176 149 184 172 162 198 202 260 114 240 253 227 279 247 165 157 155 172 173 148 129 119 112 100 80 72 66 63 49 54 51 45 42 42 35 24 13 6 355 338
160 184 150 154 121 138 198 201 191 102 12 51 237 290 308 0 19 117 149 144 168 174 170 147 125 125 113 91 81 84 79 68 56 54 60 46 39 36 25 11 3 356 348 349
191 106 125 139 99 80 173 161 110 8 227 250 288 278 247 337 343 131 154 162 161 167 160 140 132 125 99 95 88 73 71 73 63 56 46 47 32 25 18 12 7 353 339 337
136 108 183 135 179 161 162 162 57 121 136 173 303 274 218 271 254 195 183 162 161 173 171 154 138 118 109 95 77 71 63 61 51 51 45 39 26 16 3 3 351 348 333 331
178 122 144 159 262 179 163 167 152 144 215 129 144 274 336 284 273 146 145 151 177 188 172 149 140 128 113 92 74 67 60 62 50 48 45 35 16 5 4 352 338 332 333 335
174 120 105 87 76 335 191 176 127 115 97 187 150 262 355 45 87 133 148 191 196 165 145 138 131 131 112 95 79 67 56 53 52 57 50 31 16 3 352 338 342 343 339 338
94 142 152 188 183 140 176 178 169 142 151 174 219 272 352 49 132 159 136 172 199 169 158 143 135 124 113 96 86 71 60 51 48 44 33 17 6 353 344 322 330 336 330 323
134 134 122 44 132 136 179 179 180 193 198 185 215 203 216 160 220 251 300 131 160 170 150 150 145 137 127 104 89 76 59 47 46 43 25 355 342 337 329 323 325 320 327 332
100 158 113 75 65 108 187 185 181 192 163 209 135 227 177 96 99 54 9 61 158 172 165 153 144 142 125 120 113 95 78 50 50 39 8 350 344 334 324 326 334 334 325 325
144 133 118 176 123 118 294 215 184 179 180 152 192 202 152 87 115 77 16 328 233 201 165 153 148 141 139 140 147 138 108 52 26 32 15 357 336 329 332 330 327 323 328 319
129 100 78 127 95 195 237 314 169 125 93 132 102 105 121 149 109 14 24 328 316 175 149 142 143 135 145 145 127 132 88 30 27 13 350 337 327 329 323 316 310 319 315 311
43 124 109 142 192 287 164 182 152 154 202 190 127 121 105 95 70 352 26 12 297 177 154 149 149 144 128 130 136 108 40 30 11 338 312 333 333 322 306 320 322 306 306 318
48 69 105 99 145 207 229 139 129 129 243 182 141 140 135 102 89 257 346 20 50 104 121 133 127 127 132 130 119 99 39 8 335 324 319 325 309 305 327 300 297 295 305 303
72 37 123 122 234 287 234 158 166 124 216 139 137 143 142 164 195 157 109 101 124 120 120 122 124 133 144 150 109 65 4 330 308 311 318 312 325 309 277 285 290 304 305 297
158 134 169 119 159 265 173 69 160 167 67 130 135 159 178 200 177 151 168 158 143 138 133 133 128 139 142 89 72 35 307 296 314 322 314 313 294 296 303 294 297 293 294 301
195 164 180 171 213 215 11 135 107 122 133 172 168 183 175 155 139 88 155 166 169 165 149 134 134 132 127 113 77 318 293 321 322 325 316 300 296 293 291 291 298 305 304 303
279 146 121 115 218 118 99 84 121 134 136 136 99 120 145 161 99 4 143 165 163 159 162 148 144 159 155 95 261 263 308 327 331 308 296 294 291 304 293 277 284 293 298 295
191 129 142 110 82 75 274 149 148 119 97 97 77 64 63 67 271 151 175 176 173 168 166 157 149 145 219 271 326 326 321 322 306 293 286 285 285 285 301 294 284 291 282 294
192 178 165 213 184 150 181 162 119 111 92 71 67 39 45 39 218 180 195 182 166 167 152 144 151 160 307 333 315 312 318 315 296 292 297 296 304 301 303 301 301 296 305 311